Home   Weather   Minamisōma   Past weeks

Flag for Japan Past Weather in Minamisōma, Japan — Yesterday and Last 2 Weeks

Now
57 °F

Partly sunny.


Feels Like: 57 °F
Forecast: 52 / 66 °F
Wind: 5 mph from South

Location: Sendai Airport

Current Time: Apr 26, 2017 at 7:22:24 am

Latest Report: Apr 26, 2017 at 6:00 am


Visibility: N/A

Pressure: 30.01 "Hg

Humidity: 67%

Dew Point: 46 °F

Location of MinamisōmaLocation

Past Weather in Minamisōma — Graph

°F

Minamisōma Temperature Yesterday

Maximum temperature yesterday: 61 °F (at 12:00 pm)
Minimum temperature yesterday: 45 °F (at 6:00 am)
Average temperature yesterday: 57 °F

High & Low Weather Summary for the Past Weeks

 TemperatureHumidityPressure
High79 °F (Apr 16, 1:02 pm)100% (Apr 22, 5:42 am)30.36 "Hg (Apr 22, 5:42 am)
Low34 °F (Apr 14, 6:00 am)18% (Apr 13, 8:00 pm)29.24 "Hg (Apr 18, 10:00 am)
Average55 °F54%29.82 "Hg
* Reported Apr 11 6:00 am — Apr 26 6:00 am, Minamisōma, Weather by CustomWeather, © 2017

Note: Actual official high and low records may vary slightly from our data, if they occured in-between our weather recording intervals... More about our weather records

Advertising

Minamisōma Weather History for the Previous 24 Hours

Scroll right to see more
 ConditionsComfort  
Time TempWeatherWind HumidityBarometerVisibility
6:00 am
Wed, Apr 26
57 °FPartly sunny.5 mph67%30.01 "HgN/A
9:00 pm
Tue, Apr 25
55 °FPassing clouds.9 mph72%30.15 "HgN/A
8:00 pm55 °FPassing clouds.8 mph72%30.15 "HgN/A
7:00 pm55 °FPassing clouds.14 mph72%30.12 "HgN/A
6:00 pm57 °FScattered clouds.22 mph67%30.12 "HgN/A
5:00 pm59 °FPartly sunny.21 mph59%30.09 "HgN/A
4:00 pm59 °FPartly sunny.24 mph59%30.12 "HgN/A
3:08 pm59 °FPartly sunny.26 mph59%30.12 "HgN/A
2:20 pm61 °FPartly sunny.22 mph55%30.15 "HgN/A
2:00 pm61 °FPartly sunny.22 mph55%30.18 "HgN/A
1:38 pm61 °FPartly sunny.24 mph55%30.18 "HgN/A
1:00 pm61 °FPartly sunny.22 mph55%30.21 "HgN/A
12:00 pm61 °FPartly sunny.17 mph59%30.24 "HgN/A
11:00 am57 °FPartly sunny.9 mph63%30.27 "HgN/A
10:00 am55 °FPassing clouds.7 mph63%30.30 "HgN/A
9:00 am55 °FPartly sunny.6 mph63%30.30 "HgN/A
8:00 am54 °FPartly sunny.1 mph67%30.30 "HgN/A
7:00 am50 °FPartly sunny.3 mph76%30.30 "HgN/A
Weather by CustomWeather, © 2017

See weather overviewHow to use our weather pages